TimeCDT,TemperatureF,Dew PointF,Humidity,Sea Level PressureIn,VisibilityMPH,Wind Direction,Wind SpeedMPH,Gust SpeedMPH,PrecipitationIn,Events,Conditions,WindDirDegrees,DateUTC
12:56 AM,75.9,72.0,87,30.14,10.0,Calm,Calm,-,N/A,,Partly Cloudy,0,2013-07-18 05:56:00
1:56 AM,75.0,72.0,90,30.12,10.0,Calm,Calm,-,N/A,,Clear,0,2013-07-18 06:56:00
2:56 AM,73.9,71.1,91,30.10,10.0,West,4.6,-,N/A,,Clear,280,2013-07-18 07:56:00
3:56 AM,75.0,71.1,87,30.10,10.0,North,4.6,-,N/A,,Clear,10,2013-07-18 08:56:00
4:56 AM,73.0,71.1,93,30.09,10.0,Calm,Calm,-,N/A,,Clear,0,2013-07-18 09:56:00
5:56 AM,73.9,71.1,91,30.11,10.0,North,5.8,-,N/A,,Mostly Cloudy,10,2013-07-18 10:56:00
6:56 AM,75.9,72.0,87,30.11,10.0,Calm,Calm,-,N/A,,Scattered Clouds,0,2013-07-18 11:56:00
7:56 AM,79.0,70.0,74,30.13,10.0,NE,9.2,-,N/A,,Mostly Cloudy,40,2013-07-18 12:56:00
8:56 AM,81.0,69.1,67,30.14,10.0,NE,9.2,-,N/A,,Mostly Cloudy,50,2013-07-18 13:56:00
9:56 AM,84.0,70.0,63,30.15,10.0,NNE,5.8,-,N/A,,Mostly Cloudy,20,2013-07-18 14:56:00
10:56 AM,84.0,69.1,61,30.15,10.0,North,6.9,-,N/A,,Mostly Cloudy,10,2013-07-18 15:56:00
11:56 AM,86.0,71.1,61,30.14,10.0,Variable,3.5,-,N/A,,Mostly Cloudy,0,2013-07-18 16:56:00
12:56 PM,89.1,71.1,55,30.11,10.0,ESE,4.6,-,N/A,,Mostly Cloudy,110,2013-07-18 17:56:00
1:56 PM,89.1,71.1,55,30.08,10.0,ENE,3.5,-,N/A,,Mostly Cloudy,60,2013-07-18 18:56:00
2:56 PM,91.0,72.0,53,30.04,10.0,Variable,4.6,-,N/A,,Mostly Cloudy,0,2013-07-18 19:56:00
3:46 PM,87.8,69.8,55,30.05,10.0,SE,10.4,-,N/A,Thunderstorm,Thunderstorm,130,2013-07-18 20:46:00
3:56 PM,86.0,70.0,59,30.04,10.0,SE,11.5,-,N/A,Thunderstorm,Thunderstorm,140,2013-07-18 20:56:00
4:56 PM,81.0,71.1,72,30.04,10.0,ESE,8.1,-,N/A,Thunderstorm,Thunderstorm,120,2013-07-18 21:56:00
5:08 PM,80.6,69.8,70,30.04,10.0,ESE,8.1,-,0.00,Rain,Light Rain,120,2013-07-18 22:08:00
5:56 PM,81.0,69.1,67,30.03,10.0,South,5.8,-,0.00,,Mostly Cloudy,180,2013-07-18 22:56:00
6:56 PM,80.1,71.1,74,30.04,10.0,Calm,Calm,-,N/A,,Mostly Cloudy,0,2013-07-18 23:56:00
7:56 PM,77.0,72.0,84,30.07,10.0,Calm,Calm,-,N/A,,Scattered Clouds,0,2013-07-19 00:56:00
8:56 PM,75.0,72.0,90,30.07,10.0,West,4.6,-,N/A,,Scattered Clouds,270,2013-07-19 01:56:00
9:56 PM,73.9,71.1,91,30.09,10.0,Calm,Calm,-,N/A,,Scattered Clouds,0,2013-07-19 02:56:00
10:56 PM,75.9,72.0,87,30.09,10.0,ESE,4.6,-,N/A,,Partly Cloudy,110,2013-07-19 03:56:00
11:56 PM,75.0,71.1,87,30.09,10.0,East,4.6,-,N/A,,Clear,80,2013-07-19 04:56:00